Location: Constantia
(34.0183°S, 18.4411°E)
Time: 02:43:52
(UTC+00:00)

Cosmos 1959 Rocket - Pass Details

Date: 17 February 2020
Orbit: 948 x 996 km, 83.0° (Epoch: 05 April)

Event Time Altitude Azimuth Distance (km) Brightness Sun altitude
Exits shadow 02:38:06 25° 346° (NNW) 1,909 5.6 -20.7°
Maximum altitude 02:42:04 75° 264° (W) 1,038 4.5 -20.0°
Drops below altitude 10° 02:48:29 10° 178° (S) 2,784 7.3 -18.8°
Sets 02:51:02 0° 175° (S) 3,735 8.0 -18.4°
